Time,TemperatureF,DewpointF,PressureIn,WindDirection,WindDirectionDegrees,WindSpeedMPH,WindSpeedGustMPH,Humidity,HourlyPrecipIn,Conditions,Clouds,dailyrainin,SolarRadiationWatts/m^2,SoftwareType,DateUTC
2013-05-26 00:04:00,73.5,66.0,30.17,NE,50,0.0,1.0,76,0.00,,,0.00,0,weatherlink.com 1.10,2013-05-26 04:04:00,
2013-05-26 00:19:00,73.3,65.0,30.17,NE,50,0.0,1.0,76,0.00,,,0.00,0,weatherlink.com 1.10,2013-05-26 04:19:00,
2013-05-26 00:34:00,72.9,66.0,30.17,NE,50,0.0,0.0,78,0.00,,,0.00,0,weatherlink.com 1.10,2013-05-26 04:34:00,
2013-05-26 00:49:00,72.4,66.0,30.17,NE,50,0.0,0.0,80,0.00,,,0.00,0,weatherlink.com 1.10,2013-05-26 04:49:00,
2013-05-26 01:04:00,72.3,66.0,30.17,NE,50,0.0,0.0,81,0.00,,,0.00,0,weatherlink.com 1.10,2013-05-26 05:04:00,
2013-05-26 01:19:00,72.1,66.0,30.17,NE,50,0.0,1.0,81,0.00,,,0.00,0,weatherlink.com 1.10,2013-05-26 05:19:00,
2013-05-26 01:34:00,72.6,66.0,30.16,NNE,25,0.0,2.0,79,0.00,,,0.00,0,weatherlink.com 1.10,2013-05-26 05:34:00,
2013-05-26 01:49:00,73.0,64.0,30.16,NNE,30,0.0,2.0,74,0.00,,,0.00,0,weatherlink.com 1.10,2013-05-26 05:49:00,
2013-05-26 02:04:00,73.0,65.0,30.16,NNE,24,0.0,2.0,77,0.00,,,0.00,0,weatherlink.com 1.10,2013-05-26 06:04:00,
2013-05-26 02:19:00,71.6,65.0,30.15,NNE,24,0.0,0.0,80,0.00,,,0.00,0,weatherlink.com 1.10,2013-05-26 06:19:00,
2013-05-26 02:34:00,70.5,65.0,30.14,NNE,24,0.0,0.0,82,0.00,,,0.00,0,weatherlink.com 1.10,2013-05-26 06:34:00,
2013-05-26 02:49:00,69.9,64.0,30.14,NNE,24,0.0,0.0,82,0.00,,,0.00,0,weatherlink.com 1.10,2013-05-26 06:49:00,
2013-05-26 03:04:00,69.4,64.0,30.14,NNE,24,0.0,0.0,82,0.00,,,0.00,0,weatherlink.com 1.10,2013-05-26 07:04:00,
2013-05-26 03:19:00,69.0,64.0,30.13,NNE,24,0.0,0.0,83,0.00,,,0.00,0,weatherlink.com 1.10,2013-05-26 07:19:00,
2013-05-26 03:35:00,68.3,63.0,30.12,NNE,24,0.0,0.0,84,0.00,,,0.00,0,weatherlink.com 1.10,2013-05-26 07:35:00,
2013-05-26 03:50:00,67.7,63.0,30.12,NNE,24,0.0,0.0,84,0.00,,,0.00,0,weatherlink.com 1.10,2013-05-26 07:50:00,
2013-05-26 04:05:00,67.4,62.0,30.12,NNE,24,0.0,0.0,84,0.00,,,0.00,0,weatherlink.com 1.10,2013-05-26 08:05:00,
2013-05-26 04:20:00,67.2,62.0,30.12,NNE,24,0.0,0.0,83,0.00,,,0.00,0,weatherlink.com 1.10,2013-05-26 08:20:00,
2013-05-26 04:35:00,67.4,62.0,30.13,NNE,24,0.0,1.0,83,0.00,,,0.00,0,weatherlink.com 1.10,2013-05-26 08:35:00,
2013-05-26 04:50:00,67.3,62.0,30.12,NNE,24,0.0,1.0,83,0.00,,,0.00,0,weatherlink.com 1.10,2013-05-26 08:50:00,
2013-05-26 05:05:00,66.9,62.0,30.12,NNE,24,0.0,0.0,84,0.00,,,0.00,0,weatherlink.com 1.10,2013-05-26 09:05:00,
2013-05-26 05:20:00,66.6,62.0,30.12,NNE,24,0.0,0.0,84,0.00,,,0.00,0,weatherlink.com 1.10,2013-05-26 09:20:00,
2013-05-26 05:35:00,66.5,62.0,30.12,NNE,24,0.0,0.0,85,0.00,,,0.00,0,weatherlink.com 1.10,2013-05-26 09:35:00,
2013-05-26 05:50:00,66.2,62.0,30.13,NNE,24,0.0,0.0,86,0.00,,,0.00,0,weatherlink.com 1.10,2013-05-26 09:50:00,
2013-05-26 06:05:00,65.9,62.0,30.13,NNE,24,0.0,0.0,86,0.00,,,0.00,0,weatherlink.com 1.10,2013-05-26 10:05:00,
2013-05-26 06:20:00,65.4,62.0,30.13,NNE,24,0.0,0.0,87,0.00,,,0.00,0,weatherlink.com 1.10,2013-05-26 10:20:00,
2013-05-26 06:35:00,65.4,62.0,30.13,NNE,24,0.0,0.0,87,0.00,,,0.00,5,weatherlink.com 1.10,2013-05-26 10:35:00,
2013-05-26 06:50:00,65.6,62.0,30.13,NNE,24,0.0,0.0,87,0.00,,,0.00,11,weatherlink.com 1.10,2013-05-26 10:50:00,
2013-05-26 07:05:00,66.1,62.0,30.13,NNE,24,0.0,0.0,87,0.00,,,0.00,25,weatherlink.com 1.10,2013-05-26 11:05:00,
2013-05-26 07:20:00,67.1,63.0,30.14,NNE,24,0.0,1.0,87,0.00,,,0.00,54,weatherlink.com 1.10,2013-05-26 11:20:00,
2013-05-26 07:35:00,68.5,64.0,30.14,NNE,24,0.0,2.0,86,0.00,,,0.00,65,weatherlink.com 1.10,2013-05-26 11:35:00,
2013-05-26 07:50:00,70.1,65.0,30.14,NNE,30,0.0,2.0,84,0.00,,,0.00,54,weatherlink.com 1.10,2013-05-26 11:50:00,
2013-05-26 08:05:00,71.7,66.0,30.14,NNE,30,0.0,2.0,82,0.00,,,0.00,65,weatherlink.com 1.10,2013-05-26 12:05:00,
2013-05-26 08:20:00,73.5,67.0,30.15,NE,36,0.0,3.0,80,0.00,,,0.00,229,weatherlink.com 1.10,2013-05-26 12:20:00,
2013-05-26 08:35:00,75.6,68.0,30.15,NNE,29,0.0,2.0,78,0.00,,,0.00,97,weatherlink.com 1.10,2013-05-26 12:35:00,
2013-05-26 08:50:00,76.9,68.0,30.15,NNE,23,0.0,2.0,75,0.00,,,0.00,156,weatherlink.com 1.10,2013-05-26 12:50:00,
2013-05-26 09:05:00,78.2,69.0,30.16,NE,46,0.0,3.0,74,0.00,,,0.00,237,weatherlink.com 1.10,2013-05-26 13:05:00,
2013-05-26 09:20:00,79.4,68.0,30.16,SE,128,0.0,5.0,68,0.00,,,0.00,206,weatherlink.com 1.10,2013-05-26 13:20:00,
2013-05-26 09:35:00,80.3,68.0,30.16,NE,40,2.0,6.0,67,0.00,,,0.00,290,weatherlink.com 1.10,2013-05-26 13:35:00,
2013-05-26 09:50:00,80.4,68.0,30.16,ENE,78,0.0,3.0,66,0.00,,,0.00,130,weatherlink.com 1.10,2013-05-26 13:50:00,
2013-05-26 10:05:00,80.3,68.0,30.16,North,10,1.0,6.0,66,0.00,,,0.00,142,weatherlink.com 1.10,2013-05-26 14:05:00,
2013-05-26 10:20:00,81.0,69.0,30.17,South,186,1.0,9.0,66,0.00,,,0.00,272,weatherlink.com 1.10,2013-05-26 14:20:00,
2013-05-26 10:35:00,80.9,69.0,30.17,East,92,2.0,9.0,68,0.00,,,0.00,130,weatherlink.com 1.10,2013-05-26 14:35:00,
2013-05-26 10:50:00,78.5,69.0,30.18,WNW,287,0.0,7.0,72,0.00,,,0.00,171,weatherlink.com 1.10,2013-05-26 14:50:00,
2013-05-26 11:05:00,76.5,68.0,30.18,NE,56,1.0,4.0,75,0.00,,,0.00,167,weatherlink.com 1.10,2013-05-26 15:05:00,
2013-05-26 11:20:00,78.4,69.0,30.18,SE,141,2.0,5.0,72,0.00,,,0.00,234,weatherlink.com 1.10,2013-05-26 15:20:00,
2013-05-26 11:35:00,80.2,69.0,30.18,NE,55,2.0,7.0,68,0.00,,,0.00,230,weatherlink.com 1.10,2013-05-26 15:35:00,
2013-05-26 11:51:00,80.7,70.0,30.18,SSE,168,1.0,5.0,69,0.00,,,0.00,332,weatherlink.com 1.10,2013-05-26 15:51:00,
2013-05-26 12:06:00,82.4,69.0,30.18,East,101,1.0,7.0,63,0.00,,,0.00,265,weatherlink.com 1.10,2013-05-26 16:06:00,
2013-05-26 12:21:00,82.3,67.0,30.18,SE,144,2.0,5.0,61,0.00,,,0.00,202,weatherlink.com 1.10,2013-05-26 16:21:00,
2013-05-26 12:36:00,82.8,67.0,30.18,SE,128,0.0,9.0,60,0.00,,,0.00,1013,weatherlink.com 1.10,2013-05-26 16:36:00,
2013-05-26 12:51:00,83.1,68.0,30.17,NNW,343,2.0,6.0,60,0.00,,,0.00,397,weatherlink.com 1.10,2013-05-26 16:51:00,
2013-05-26 13:06:00,83.1,67.0,30.17,South,170,1.0,7.0,58,0.00,,,0.00,893,weatherlink.com 1.10,2013-05-26 17:06:00,
2013-05-26 13:21:00,83.8,67.0,30.17,ENE,73,0.0,7.0,57,0.00,,,0.00,612,weatherlink.com 1.10,2013-05-26 17:21:00,
2013-05-26 13:36:00,84.3,67.0,30.16,SE,135,2.0,8.0,57,0.00,,,0.00,1048,weatherlink.com 1.10,2013-05-26 17:36:00,
2013-05-26 13:51:00,84.8,67.0,30.16,SE,136,1.0,5.0,56,0.00,,,0.00,547,weatherlink.com 1.10,2013-05-26 17:51:00,
2013-05-26 14:06:00,84.2,65.0,30.16,North,5,2.0,5.0,53,0.00,,,0.00,895,weatherlink.com 1.10,2013-05-26 18:06:00,
2013-05-26 14:21:00,84.9,66.0,30.16,East,79,3.0,6.0,53,0.00,,,0.00,954,weatherlink.com 1.10,2013-05-26 18:21:00,
2013-05-26 14:36:00,84.8,67.0,30.15,NE,54,1.0,5.0,55,0.00,,,0.00,895,weatherlink.com 1.10,2013-05-26 18:36:00,
2013-05-26 14:51:00,84.4,66.0,30.15,ENE,59,2.0,6.0,55,0.00,,,0.00,1005,weatherlink.com 1.10,2013-05-26 18:51:00,
2013-05-26 15:06:00,83.7,65.0,30.15,ENE,62,1.0,7.0,53,0.00,,,0.00,360,weatherlink.com 1.10,2013-05-26 19:06:00,
2013-05-26 15:21:00,83.0,64.0,30.15,ENE,71,1.0,7.0,53,0.00,,,0.00,195,weatherlink.com 1.10,2013-05-26 19:21:00,
2013-05-26 15:36:00,83.5,66.0,30.14,NNE,27,1.0,7.0,55,0.00,,,0.00,626,weatherlink.com 1.10,2013-05-26 19:36:00,
2013-05-26 15:51:00,83.1,66.0,30.14,ENE,65,1.0,8.0,56,0.00,,,0.00,506,weatherlink.com 1.10,2013-05-26 19:51:00,
2013-05-26 16:06:00,82.5,66.0,30.14,NE,38,0.0,8.0,58,0.00,,,0.00,504,weatherlink.com 1.10,2013-05-26 20:06:00,
2013-05-26 16:21:00,82.7,66.0,30.14,NNW,348,4.0,7.0,58,0.00,,,0.00,343,weatherlink.com 1.10,2013-05-26 20:21:00,
2013-05-26 16:36:00,82.4,67.0,30.14,NE,54,2.0,9.0,59,0.00,,,0.00,172,weatherlink.com 1.10,2013-05-26 20:36:00,
2013-05-26 16:51:00,81.0,66.0,30.13,East,81,1.0,7.0,60,0.00,,,0.00,181,weatherlink.com 1.10,2013-05-26 20:51:00,
2013-05-26 17:06:00,81.2,66.0,30.13,NNE,15,3.0,10.0,61,0.00,,,0.00,134,weatherlink.com 1.10,2013-05-26 21:06:00,
2013-05-26 17:21:00,81.2,65.0,30.13,NE,40,1.0,7.0,58,0.00,,,0.00,283,weatherlink.com 1.10,2013-05-26 21:21:00,
2013-05-26 17:36:00,81.1,65.0,30.12,NE,38,5.0,8.0,58,0.00,,,0.00,111,weatherlink.com 1.10,2013-05-26 21:36:00,
2013-05-26 17:51:00,80.8,65.0,30.12,SE,126,1.0,7.0,59,0.00,,,0.00,114,weatherlink.com 1.10,2013-05-26 21:51:00,
2013-05-26 18:06:00,79.8,65.0,30.12,NNW,336,3.0,6.0,61,0.00,,,0.00,72,weatherlink.com 1.10,2013-05-26 22:06:00,
2013-05-26 18:21:00,79.6,65.0,30.12,ENE,73,1.0,7.0,61,0.00,,,0.00,121,weatherlink.com 1.10,2013-05-26 22:21:00,
2013-05-26 18:36:00,79.2,65.0,30.12,East,87,0.0,6.0,62,0.00,,,0.00,72,weatherlink.com 1.10,2013-05-26 22:36:00,
2013-05-26 19:07:00,78.3,64.0,30.12,NNW,339,0.0,7.0,62,0.00,,,0.00,58,weatherlink.com 1.10,2013-05-26 23:07:00,
2013-05-26 19:40:00,77.4,65.0,30.13,NNE,32,0.0,3.0,65,0.00,,,0.00,18,weatherlink.com 1.10,2013-05-26 23:40:00,
2013-05-26 19:52:00,77.1,65.0,30.13,NE,43,0.0,6.0,66,0.00,,,0.00,12,weatherlink.com 1.10,2013-05-26 23:52:00,
2013-05-26 20:07:00,76.9,65.0,30.14,East,84,0.0,7.0,66,0.00,,,0.00,0,weatherlink.com 1.10,2013-05-27 00:07:00,
2013-05-26 20:24:00,76.6,65.0,30.14,East,82,0.0,5.0,67,0.00,,,0.00,0,weatherlink.com 1.10,2013-05-27 00:24:00,
2013-05-26 20:53:00,76.2,65.0,30.14,South,176,0.0,3.0,68,0.00,,,0.00,0,weatherlink.com 1.10,2013-05-27 00:53:00,
2013-05-26 21:09:00,75.9,65.0,30.14,NE,44,0.0,2.0,69,0.00,,,0.00,0,weatherlink.com 1.10,2013-05-27 01:09:00,
2013-05-26 21:21:00,75.8,65.0,30.14,ENE,66,0.0,5.0,69,0.00,,,0.00,0,weatherlink.com 1.10,2013-05-27 01:21:00,
2013-05-26 21:39:00,75.7,65.0,30.14,NE,50,0.0,3.0,69,0.00,,,0.00,0,weatherlink.com 1.10,2013-05-27 01:39:00,
2013-05-26 21:57:00,75.7,64.0,30.15,East,90,0.0,3.0,68,0.00,,,0.00,0,weatherlink.com 1.10,2013-05-27 01:57:00,
2013-05-26 22:07:00,75.6,64.0,30.16,NNE,17,0.0,3.0,68,0.00,,,0.00,0,weatherlink.com 1.10,2013-05-27 02:07:00,
2013-05-26 22:22:00,75.4,65.0,30.16,NE,55,1.0,1.0,69,0.00,,,0.00,0,weatherlink.com 1.10,2013-05-27 02:22:00,
2013-05-26 22:37:00,75.5,65.0,30.16,NE,45,0.0,1.0,70,0.00,,,0.00,0,weatherlink.com 1.10,2013-05-27 02:37:00,
2013-05-26 22:52:00,75.8,65.0,30.17,ESE,111,0.0,4.0,69,0.00,,,0.00,0,weatherlink.com 1.10,2013-05-27 02:52:00,
2013-05-26 23:07:00,76.0,65.0,30.17,North,11,0.0,3.0,68,0.00,,,0.00,0,weatherlink.com 1.10,2013-05-27 03:07:00,
2013-05-26 23:22:00,76.0,65.0,30.17,East,86,0.0,5.0,68,0.00,,,0.00,0,weatherlink.com 1.10,2013-05-27 03:22:00,
2013-05-26 23:37:00,75.7,64.0,30.16,East,98,0.0,5.0,68,0.00,,,0.00,0,weatherlink.com 1.10,2013-05-27 03:37:00,
2013-05-26 23:52:00,75.3,64.0,30.17,East,93,0.0,4.0,68,0.00,,,0.00,0,weatherlink.com 1.10,2013-05-27 03:52:00,